Total_Precipitation_Accumulation
0.75 0.98 1.21 1.47 1.76 2.13 2.29 2.26 2.21 2.38 2.59 2.43 2.21 2.00 1.78 1.60 1.41 1.24 1.12 1.03 0.94 0.85 0.74 0.65 0.62 0.56 0.52 0.50 0.49 0.44 0.37 0.32 0.31 0.32 0.26 0.19 0.15 0.13 0.11 0.10 0.10 0.08 0.06
0.67 0.90 1.11 1.34 1.52 1.96 2.22 2.23 2.29 2.42 2.59 2.47 2.33 2.27 2.20 1.99 1.79 1.64 1.37 1.17 1.06 0.97 0.92 0.81 0.72 0.67 0.62 0.59 0.58 0.56 0.51 0.45 0.45 0.48 0.48 0.36 0.25 0.16 0.12 0.12 0.11 0.11 0.10
0.62 0.77 0.95 1.16 1.25 1.53 1.90 2.06 2.13 2.29 2.41 2.55 2.80 2.78 2.66 2.34 1.90 1.61 1.50 1.39 1.35 1.25 1.12 1.09 1.00 0.83 0.73 0.66 0.64 0.62 0.58 0.53 0.49 0.48 0.58 0.55 0.39 0.28 0.20 0.16 0.13 0.13 0.14
0.60 0.72 0.83 0.94 1.07 1.20 1.54 1.88 2.08 2.22 2.25 2.32 2.54 2.63 2.49 2.15 1.80 1.59 1.59 1.63 1.58 1.55 1.48 1.34 1.28 1.15 0.98 0.83 0.79 0.77 0.74 0.72 0.67 0.60 0.54 0.53 0.49 0.48 0.37 0.23 0.18 0.16 0.15
0.64 0.70 0.74 0.78 0.86 1.01 1.34 1.65 1.89 2.12 2.15 2.08 2.17 2.38 2.45 2.32 2.15 1.96 1.80 1.73 1.69 1.59 1.57 1.53 1.44 1.35 1.25 1.14 1.06 0.99 0.95 0.91 0.85 0.77 0.68 0.64 0.57 0.57 0.60 0.42 0.25 0.23 0.21
0.71 0.72 0.73 0.72 0.77 0.85 1.01 1.31 1.60 1.92 2.10 2.05 2.07 2.15 2.19 2.26 2.16 1.99 1.94 1.85 1.82 1.72 1.57 1.55 1.53 1.46 1.43 1.37 1.33 1.28 1.18 1.10 1.02 0.94 0.87 0.85 0.79 0.70 0.75 0.70 0.49 0.42 0.34
0.65 0.63 0.62 0.62 0.71 0.79 0.86 1.05 1.22 1.49 1.77 1.90 1.93 1.95 2.02 2.06 2.07 2.02 2.00 1.97 1.83 1.70 1.62 1.57 1.57 1.57 1.49 1.47 1.47 1.41 1.30 1.22 1.14 1.08 1.02 0.98 0.92 0.88 0.92 0.98 0.82 0.68 0.53
0.68 0.65 0.61 0.64 0.75 0.77 0.83 0.94 1.04 1.17 1.40 1.60 1.67 1.69 1.80 1.87 1.81 1.85 1.84 1.80 1.74 1.65 1.65 1.65 1.59 1.60 1.58 1.53 1.49 1.43 1.32 1.26 1.21 1.15 1.11 1.06 1.00 1.01 1.05 1.10 1.16 1.05 0.78
0.61 0.64 0.65 0.68 0.73 0.76 0.81 0.88 0.95 0.98 1.10 1.27 1.41 1.50 1.53 1.54 1.49 1.50 1.52 1.54 1.57 1.55 1.49 1.48 1.49 1.47 1.46 1.45 1.45 1.40 1.30 1.25 1.20 1.14 1.11 1.06 0.99 1.01 1.06 1.13 1.27 1.42 1.25
0.60 0.64 0.67 0.65 0.66 0.70 0.73 0.81 0.83 0.82 0.88 0.98 1.06 1.21 1.31 1.30 1.33 1.33 1.31 1.29 1.28 1.31 1.31 1.30 1.32 1.30 1.30 1.30 1.30 1.26 1.23 1.20 1.12 1.07 1.05 0.99 0.94 0.97 1.03 1.12 1.20 1.35 1.45
0.63 0.68 0.71 0.68 0.66 0.70 0.72 0.74 0.69 0.71 0.74 0.81 0.86 0.91 1.02 1.10 1.15 1.15 1.08 1.10 1.06 1.03 1.04 1.02 1.04 1.08 1.11 1.12 1.13 1.12 1.11 1.11 1.07 1.05 1.05 1.03 0.99 0.99 0.99 1.03 1.08 1.15 1.26
0.56 0.61 0.67 0.67 0.66 0.69 0.72 0.75 0.68 0.65 0.67 0.73 0.73 0.76 0.84 0.95 0.99 1.03 0.98 0.93 0.95 0.89 0.87 0.85 0.83 0.83 0.85 0.87 0.88 0.89 0.92 0.95 0.95 0.94 0.97 0.97 0.98 1.00 0.97 0.96 0.96 0.95 0.96
0.49 0.51 0.53 0.59 0.63 0.64 0.67 0.74 0.71 0.64 0.61 0.62 0.63 0.67 0.73 0.81 0.85 0.86 0.89 0.83 0.86 0.81 0.78 0.75 0.73 0.70 0.69 0.68 0.71 0.74 0.77 0.80 0.81 0.81 0.84 0.85 0.88 0.89 0.86 0.84 0.82 0.81 0.83
0.37 0.38 0.41 0.47 0.52 0.57 0.62 0.65 0.67 0.67 0.66 0.63 0.58 0.61 0.65 0.76 0.79 0.74 0.77 0.77 0.82 0.85 0.77 0.71 0.68 0.67 0.66 0.66 0.67 0.71 0.74 0.74 0.74 0.74 0.75 0.73 0.71 0.70 0.70 0.72 0.74 0.81 0.88
0.25 0.27 0.29 0.33 0.39 0.44 0.48 0.53 0.57 0.59 0.64 0.64 0.61 0.60 0.60 0.68 0.74 0.67 0.67 0.69 0.72 0.83 0.83 0.77 0.73 0.70 0.67 0.68 0.71 0.72 0.74 0.74 0.73 0.70 0.67 0.65 0.66 0.64 0.64 0.67 0.72 0.80 0.92
0.16 0.17 0.18 0.21 0.24 0.28 0.34 0.39 0.45 0.49 0.57 0.59 0.60 0.59 0.58 0.61 0.69 0.67 0.65 0.66 0.69 0.77 0.83 0.87 0.84 0.79 0.75 0.83 0.80 0.73 0.73 0.75 0.73 0.70 0.64 0.61 0.65 0.62 0.62 0.66 0.73 0.86 1.00
0.12 0.12 0.12 0.13 0.15 0.18 0.23 0.28 0.32 0.37 0.44 0.51 0.56 0.58 0.61 0.63 0.68 0.69 0.69 0.74 0.80 0.85 0.86 0.90 0.93 0.91 0.92 0.92 0.79 0.75 0.68 0.68 0.69 0.66 0.62 0.58 0.56 0.60 0.56 0.61 0.73 0.82 0.91
0.12 0.13 0.13 0.13 0.13 0.14 0.16 0.18 0.23 0.29 0.33 0.38 0.46 0.49 0.54 0.57 0.58 0.65 0.71 0.77 0.81 0.86 0.89 0.91 0.90 0.89 0.88 0.85 0.74 0.69 0.62 0.62 0.63 0.61 0.59 0.59 0.58 0.57 0.62 0.69 0.75 0.68 0.64
0.11 0.12 0.11 0.12 0.13 0.12 0.13 0.15 0.19 0.25 0.29 0.36 0.43 0.48 0.55 0.57 0.59 0.65 0.67 0.71 0.77 0.80 0.78 0.78 0.79 0.80 0.80 0.75 0.67 0.64 0.58 0.58 0.56 0.53 0.53 0.55 0.55 0.64 0.78 0.84 0.84 0.68 0.54
0.10 0.11 0.12 0.13 0.14 0.16 0.18 0.19 0.23 0.26 0.29 0.36 0.43 0.46 0.53 0.62 0.65 0.67 0.65 0.62 0.66 0.72 0.69 0.65 0.63 0.62 0.65 0.66 0.61 0.58 0.55 0.56 0.53 0.50 0.49 0.53 0.55 0.66 0.80 0.79 0.82 0.77 0.63
0.11 0.11 0.12 0.14 0.19 0.24 0.26 0.27 0.30 0.33 0.34 0.36 0.41 0.40 0.44 0.50 0.53 0.54 0.54 0.54 0.54 0.55 0.52 0.51 0.52 0.49 0.50 0.54 0.51 0.49 0.47 0.50 0.51 0.48 0.43 0.44 0.59 0.68 0.73 0.70 0.63 0.72 0.80
0.14 0.13 0.15 0.16 0.18 0.25 0.32 0.32 0.31 0.32 0.32 0.32 0.36 0.37 0.39 0.42 0.43 0.44 0.46 0.48 0.46 0.44 0.42 0.39 0.40 0.40 0.41 0.43 0.43 0.44 0.45 0.50 0.46 0.43 0.40 0.42 0.56 0.58 0.58 0.58 0.63 0.78 0.79
0.14 0.13 0.14 0.15 0.16 0.20 0.26 0.33 0.33 0.31 0.31 0.32 0.35 0.34 0.33 0.35 0.38 0.38 0.40 0.40 0.38 0.37 0.35 0.33 0.31 0.32 0.34 0.39 0.44 0.46 0.50 0.52 0.46 0.41 0.46 0.49 0.50 0.48 0.47 0.57 0.69 0.69 0.63
0.13 0.13 0.13 0.14 0.17 0.18 0.20 0.24 0.27 0.27 0.28 0.29 0.30 0.32 0.33 0.31 0.30 0.31 0.34 0.36 0.36 0.36 0.34 0.33 0.32 0.30 0.32 0.34 0.37 0.43 0.47 0.48 0.49 0.49 0.48 0.45 0.44 0.45 0.48 0.53 0.55 0.55 0.63
0.13 0.15 0.14 0.15 0.16 0.16 0.17 0.17 0.18 0.20 0.23 0.26 0.26 0.26 0.28 0.28 0.28 0.27 0.30 0.34 0.35 0.39 0.42 0.41 0.39 0.37 0.35 0.36 0.45 0.49 0.48 0.50 0.51 0.52 0.46 0.42 0.42 0.42 0.43 0.47 0.50 0.53 0.65
0.14 0.15 0.14 0.14 0.15 0.15 0.15 0.16 0.16 0.17 0.20 0.22 0.23 0.24 0.25 0.25 0.26 0.26 0.25 0.29 0.32 0.36 0.41 0.45 0.46 0.42 0.42 0.45 0.48 0.49 0.52 0.56 0.57 0.55 0.48 0.46 0.45 0.45 0.46 0.49 0.53 0.56 0.67